Location: Newark
(48.4660°N, 135.0670°E)
Time: 17:03:12
(UTC+00:00)

Envisat - Visible Passes

Search period start: 30 September 2020 00:00
Search period end: 10 October 2020 00:00
Orbit: 764 x 766 km, 98.1° (Epoch: 29 September)

Date Brightness Start Highest point End Pass type
(mag) Time Alt. Az. Time Alt. Az. Time Alt. Az.
30 Sep 5.1 20:25:47 10° NNE 20:30:23 33° E 20:34:57 10° SSE visible
01 Oct 6.1 09:24:38 10° SW 09:28:16 20° W 09:31:55 10° NW visible
01 Oct 6.2 19:50:00 10° NE 19:53:12 17° E 19:56:24 10° SE visible
03 Oct 6.6 09:52:24 10° WSW 09:54:04 11° W 09:55:45 10° WNW visible
03 Oct 5.5 20:14:36 10° NE 20:18:55 27° E 20:23:12 10° SSE visible
04 Oct 5.8 09:12:43 10° SW 09:16:47 24° W 09:20:53 10° NW visible
04 Oct 6.4 19:39:16 10° ENE 19:41:41 13° E 19:44:05 10° ESE visible
06 Oct 6.3 09:39:47 10° WSW 09:42:32 15° W 09:45:19 10° NW visible
06 Oct 5.8 20:03:31 10° NE 20:07:27 22° E 20:11:22 10° SE visible
07 Oct 5.4 09:00:55 10° SSW 09:05:19 29° W 09:09:45 10° NNW visible
07 Oct 6.7 19:29:17 10° ENE 19:30:09 10° E 19:31:00 10° E visible
08 Oct 4.9 20:28:25 10° NNE 20:33:07 36° E 20:37:46 10° SSE visible
09 Oct 6.1 09:27:35 10° SW 09:31:01 18° W 09:34:29 10° NW visible
09 Oct 6.1 19:52:31 10° NE 19:55:57 18° E 19:59:22 10° SE visible
